�������l�o���
Date,Time,MP-1(��Sv/h),MP-2(��Sv/h),MP-3(��Sv/h),MP-4(��Sv/h),MP-5(��Sv/h),MP-6(��Sv/h),MP-7(��Sv/h),MP-8(��Sv/h),����,����(m/s),���J
2023/01/10,00:00,0.575,0.828,0.522,1.062,0.735,0.327,0.590,0.560,�k�k��,7.8,��
2023/01/10,00:10,0.574,0.826,0.520,1.062,0.733,0.327,0.590,0.559,�k�k��,8.0,��
2023/01/10,00:20,0.575,0.826,0.520,1.061,0.734,0.327,0.590,0.559,�k�k��,8.3,��
2023/01/10,00:30,0.571,0.828,0.520,1.064,0.733,0.328,0.591,0.560,�k�k��,8.3,��
2023/01/10,00:40,0.575,0.829,0.519,1.061,0.732,0.327,0.590,0.559,�k�k��,9.6,��
2023/01/10,00:50,0.574,0.829,0.521,1.064,0.731,0.325,0.592,0.559,�k�k��,11.1,��
2023/01/10,01:00,0.574,0.829,0.519,1.061,0.732,0.326,0.591,0.559,�k�k��,9.1,��
2023/01/10,01:10,0.573,0.828,0.520,1.063,0.734,0.325,0.590,0.559,�k�k��,7.8,��
2023/01/10,01:20,0.573,0.828,0.519,1.063,0.733,0.326,0.590,0.560,�k�k��,8.6,��
2023/01/10,01:30,0.573,0.827,0.520,1.063,0.734,0.326,0.590,0.560,�k�k��,7.4,��
2023/01/10,01:40,0.573,0.829,0.520,1.063,0.735,0.326,0.590,0.559,�k�k��,7.5,��
2023/01/10,01:50,0.575,0.829,0.520,1.062,0.733,0.326,0.590,0.559,�k��,6.4,��
2023/01/10,02:00,0.573,0.829,0.518,1.062,0.733,0.327,0.591,0.559,�k��,6.3,��
2023/01/10,02:10,0.574,0.829,0.521,1.063,0.735,0.326,0.591,0.559,���k��,6.4,��
2023/01/10,02:20,0.574,0.828,0.520,1.060,0.733,0.328,0.589,0.559,�k��,6.6,��
2023/01/10,02:30,0.573,0.826,0.519,1.062,0.732,0.327,0.590,0.560,�k��,7.7,��
2023/01/10,02:40,0.574,0.829,0.519,1.062,0.732,0.327,0.591,0.559,�k��,6.4,��
2023/01/10,02:50,0.572,0.830,0.518,1.064,0.734,0.328,0.588,0.559,�k��,6.0,��
2023/01/10,03:00,0.573,0.827,0.518,1.063,0.733,0.326,0.590,0.559,�k�k��,4.7,��
2023/01/10,03:10,0.574,0.829,0.520,1.064,0.733,0.327,0.591,0.559,�k�k��,5.6,��
2023/01/10,03:20,0.574,0.829,0.520,1.061,0.733,0.326,0.592,0.560,�k,6.6,��
2023/01/10,03:30,0.571,0.828,0.520,1.062,0.732,0.327,0.588,0.560,�k�k��,6.3,��
2023/01/10,03:40,0.573,0.829,0.519,1.063,0.733,0.327,0.589,0.560,�k,6.3,��
2023/01/10,03:50,0.573,0.829,0.519,1.062,0.734,0.326,0.590,0.559,�k,6.4,��
2023/01/10,04:00,0.574,0.831,0.519,1.063,0.731,0.327,0.591,0.560,���k��,8.0,��
2023/01/10,04:10,0.573,0.830,0.518,1.065,0.733,0.327,0.591,0.560,���k��,9.4,��
2023/01/10,04:20,0.573,0.827,0.518,1.062,0.731,0.327,0.591,0.559,�k��,6.0,��
2023/01/10,04:30,0.573,0.828,0.519,1.061,0.734,0.326,0.591,0.559,���k��,5.0,��
2023/01/10,04:40,0.574,0.829,0.520,1.062,0.734,0.327,0.590,0.559,�k��,8.6,��
2023/01/10,04:50,0.573,0.829,0.519,1.061,0.736,0.326,0.591,0.559,���k��,7.4,��
2023/01/10,05:00,0.574,0.830,0.518,1.060,0.733,0.326,0.591,0.560,���k��,7.2,��
2023/01/10,05:10,0.575,0.830,0.519,1.061,0.732,0.327,0.590,0.560,���k��,9.3,��
2023/01/10,05:20,0.572,0.828,0.518,1.063,0.733,0.325,0.592,0.561,�k��,7.4,��
2023/01/10,05:30,0.573,0.827,0.517,1.063,0.734,0.325,0.591,0.560,�k�k��,6.9,��
2023/01/10,05:40,0.573,0.828,0.517,1.062,0.732,0.326,0.590,0.559,�k,3.2,��
2023/01/10,05:50,0.573,0.828,0.518,1.061,0.733,0.326,0.590,0.560,�k�k��,4.4,��
2023/01/10,06:00,0.573,0.830,0.520,1.064,0.735,0.326,0.591,0.561,�k�k��,6.7,��
2023/01/10,06:10,0.573,0.827,0.518,1.063,0.733,0.326,0.590,0.561,�k�k��,7.1,��
2023/01/10,06:20,0.573,0.831,0.519,1.062,0.733,0.327,0.590,0.561,�k��,6.1,��
2023/01/10,06:30,0.572,0.828,0.518,1.063,0.734,0.327,0.590,0.561,�k��,8.5,��
2023/01/10,06:40,0.573,0.827,0.518,1.065,0.731,0.327,0.590,0.561,�k��,8.3,��
2023/01/10,06:50,0.572,0.829,0.520,1.062,0.732,0.325,0.590,0.560,���k��,9.4,��
2023/01/10,07:00,0.573,0.829,0.517,1.064,0.735,0.326,0.589,0.560,���k��,8.9,��
2023/01/10,07:10,0.571,0.828,0.516,1.061,0.732,0.325,0.590,0.560,���k��,9.7,��
2023/01/10,07:20,0.572,0.830,0.515,1.064,0.733,0.325,0.589,0.560,���k��,9.9,��
2023/01/10,07:30,0.572,0.828,0.518,1.063,0.735,0.324,0.589,0.559,�k��,9.1,��
2023/01/10,07:40,0.573,0.831,0.520,1.064,0.734,0.324,0.589,0.560,���k��,12.3,��
2023/01/10,07:50,0.573,0.829,0.520,1.066,0.733,0.327,0.589,0.559,���k��,12.6,��
2023/01/10,08:00,0.575,0.829,0.521,1.065,0.734,0.326,0.590,0.558,���k��,10.8,��
2023/01/10,08:10,0.573,0.829,0.520,1.065,0.734,0.327,0.587,0.562,���k��,9.4,��
2023/01/10,08:20,0.575,0.827,0.518,1.067,0.734,0.327,0.587,0.562,���k��,6.9,��
2023/01/10,08:30,0.575,0.829,0.521,1.067,0.735,0.326,0.588,0.561,���k��,7.7,��
2023/01/10,08:40,0.574,0.830,0.520,1.066,0.735,0.328,0.591,0.561,�k��,10.5,��
2023/01/10,08:50,0.574,0.829,0.520,1.066,0.733,0.329,0.589,0.563,���k��,12.4,��
2023/01/10,09:00,0.573,0.826,0.519,1.066,0.732,0.326,0.590,0.561,���k��,9.7,��
2023/01/10,09:10,0.574,0.831,0.519,1.065,0.734,0.329,0.589,0.563,�k��,9.6,��
2023/01/10,09:20,0.575,0.830,0.519,1.066,0.734,0.327,0.591,0.561,�k��,6.9,��
2023/01/10,09:30,0.574,0.829,0.520,1.064,0.733,0.327,0.589,0.562,�k��,9.7,��
2023/01/10,09:40,0.575,0.828,0.518,1.065,0.732,0.327,0.590,0.562,�k��,9.9,��
2023/01/10,09:50,0.573,0.829,0.521,1.065,0.733,0.327,0.591,0.561,���k��,7.4,��
2023/01/10,10:00,0.576,0.828,0.521,1.065,0.733,0.328,0.589,0.561,�k��,6.3,��
2023/01/10,10:10,0.575,0.828,0.519,1.064,0.733,0.326,0.590,0.562,�k��,7.8,��
2023/01/10,10:20,0.574,0.829,0.520,1.064,0.733,0.327,0.590,0.561,���k��,7.2,��
2023/01/10,10:30,0.574,0.830,0.520,1.064,0.735,0.327,0.589,0.561,���k��,6.6,��
2023/01/10,10:40,0.574,0.830,0.519,1.063,0.733,0.326,0.589,0.561,���k��,7.7,��
2023/01/10,10:50,0.575,0.829,0.519,1.062,0.734,0.327,0.589,0.562,�k��,6.6,��
2023/01/10,11:00,0.574,0.829,0.519,1.065,0.734,0.325,0.592,0.562,�k��,6.3,��
2023/01/10,11:10,0.574,0.829,0.520,1.065,0.736,0.326,0.591,0.561,���k��,6.4,��
2023/01/10,11:20,0.574,0.831,0.520,1.064,0.736,0.327,0.590,0.561,�k��,7.4,��
2023/01/10,11:30,0.575,0.829,0.519,1.062,0.733,0.326,0.588,0.561,�k��,10.5,��
2023/01/10,11:40,0.574,0.829,0.519,1.066,0.734,0.327,0.591,0.561,�k��,7.7,��
2023/01/10,11:50,0.574,0.832,0.518,1.066,0.734,0.326,0.591,0.561,�k��,11.6,��
2023/01/10,12:00,0.574,0.832,0.519,1.064,0.736,0.327,0.592,0.561,���k��,8.8,��
2023/01/10,12:10,0.574,0.831,0.518,1.064,0.734,0.326,0.590,0.558,���k��,8.9,��
2023/01/10,12:20,0.574,0.830,0.520,1.065,0.733,0.327,0.589,0.561,�k��,7.1,��
2023/01/10,12:30,0.575,0.829,0.520,1.065,0.735,0.325,0.591,0.562,���k��,11.1,��
2023/01/10,12:40,0.573,0.829,0.518,1.065,0.735,0.325,0.591,0.561,���k��,11.0,��
2023/01/10,12:50,0.575,0.829,0.519,1.063,0.735,0.327,0.590,0.561,���k��,8.5,��
2023/01/10,13:00,0.573,0.828,0.519,1.063,0.734,0.325,0.589,0.560,���k��,8.0,��
2023/01/10,13:10,0.573,0.828,0.518,1.064,0.736,0.325,0.590,0.562,���k��,9.7,��
2023/01/10,13:20,0.575,0.828,0.518,1.062,0.735,0.327,0.589,0.562,���k��,7.4,��
2023/01/10,13:30,0.572,0.828,0.519,1.066,0.736,0.326,0.592,0.561,�k,5.5,��
2023/01/10,13:40,0.572,0.826,0.518,1.065,0.735,0.327,0.590,0.561,�k�k��,5.2,��
2023/01/10,13:50,0.572,0.827,0.519,1.064,0.735,0.325,0.588,0.561,�k�k��,5.3,��
2023/01/10,14:00,0.574,0.825,0.520,1.066,0.734,0.325,0.590,0.561,���k��,9.4,��
2023/01/10,14:10,0.574,0.828,0.517,1.065,0.736,0.326,0.590,0.559,���k��,9.9,��
2023/01/10,14:20,0.574,0.827,0.517,1.064,0.734,0.326,0.588,0.561,�k��,6.0,��
2023/01/10,14:30,0.573,0.825,0.517,1.064,0.735,0.326,0.590,0.560,�k��,8.3,��
2023/01/10,14:40,0.574,0.828,0.516,1.063,0.736,0.328,0.590,0.561,�k��,8.3,��
2023/01/10,14:50,0.573,0.827,0.511,1.065,0.734,0.325,0.589,0.561,�k��,6.9,��
2023/01/10,15:00,0.575,0.828,0.516,1.063,0.735,0.327,0.590,0.561,�k��,8.6,��
2023/01/10,15:10,0.574,0.829,0.520,1.063,0.734,0.323,0.589,0.563,�k��,9.7,��
2023/01/10,15:20,0.572,0.828,0.520,1.064,0.730,0.324,0.589,0.562,�k��,9.3,��
2023/01/10,15:30,0.574,0.831,0.519,1.065,0.734,0.327,0.589,0.561,�k��,9.4,��
2023/01/10,15:40,0.575,0.829,0.520,1.064,0.736,0.326,0.589,0.560,�k��,6.6,��
2023/01/10,15:50,0.574,0.828,0.519,1.063,0.734,0.325,0.590,0.562,�k��,6.4,��
2023/01/10,16:00,0.573,0.833,0.518,1.064,0.735,0.326,0.589,0.561,�k��,8.8,��
2023/01/10,16:10,0.575,0.828,0.519,1.062,0.734,0.324,0.588,0.560,�k��,9.9,��
2023/01/10,16:20,0.573,0.830,0.519,1.064,0.734,0.325,0.588,0.561,�k��,9.4,��
2023/01/10,16:30,0.572,0.829,0.519,1.062,0.732,0.323,0.587,0.561,�k��,5.2,��
2023/01/10,16:40,0.573,0.829,0.517,1.063,0.732,0.323,0.587,0.560,�k��,7.4,��
2023/01/10,16:50,0.572,0.829,0.518,1.064,0.733,0.323,0.590,0.562,�k��,9.3,��
2023/01/10,17:00,0.572,0.830,0.517,1.065,0.733,0.323,0.588,0.560,�k��,9.3,��
2023/01/10,17:10,0.572,0.828,0.518,1.062,0.733,0.322,0.589,0.560,�k��,11.0,��
2023/01/10,17:20,0.572,0.829,0.517,1.064,0.733,0.323,0.588,0.560,�k��,7.7,��
2023/01/10,17:30,0.572,0.829,0.516,1.063,0.734,0.322,0.589,0.560,�k��,8.5,��
2023/01/10,17:40,0.571,0.829,0.516,1.064,0.732,0.324,0.589,0.561,���k��,7.5,��
2023/01/10,17:50,0.571,0.831,0.516,1.062,0.734,0.324,0.588,0.560,�k��,8.2,��
2023/01/10,18:00,0.573,0.829,0.517,1.063,0.733,0.325,0.588,0.560,�k��,9.3,��
2023/01/10,18:10,0.572,0.831,0.517,1.064,0.734,0.324,0.589,0.561,���k��,6.9,��
2023/01/10,18:20,0.572,0.831,0.516,1.064,0.735,0.325,0.587,0.560,���k��,6.3,��
2023/01/10,18:30,0.572,0.829,0.517,1.063,0.734,0.325,0.589,0.560,���k��,6.6,��
2023/01/10,18:40,0.571,0.830,0.517,1.061,0.733,0.324,0.588,0.559,�k��,6.0,��
2023/01/10,18:50,0.574,0.830,0.518,1.063,0.734,0.325,0.588,0.560,�k��,7.1,��
2023/01/10,19:00,0.573,0.832,0.517,1.064,0.734,0.324,0.588,0.560,�k��,6.4,��
2023/01/10,19:10,0.572,0.830,0.519,1.063,0.733,0.324,0.589,0.560,���k��,7.1,��
2023/01/10,19:20,0.572,0.829,0.520,1.063,0.734,0.325,0.588,0.560,���k��,5.5,��
2023/01/10,19:30,0.572,0.830,0.517,1.064,0.733,0.325,0.589,0.560,���k��,4.4,��
2023/01/10,19:40,0.572,0.830,0.518,1.064,0.733,0.326,0.590,0.561,�k��,4.1,��
2023/01/10,19:50,0.572,0.831,0.519,1.064,0.735,0.324,0.588,0.559,�k�k��,3.3,��
2023/01/10,20:00,0.573,0.830,0.519,1.062,0.733,0.325,0.588,0.559,�k��,5.2,��
2023/01/10,20:10,0.572,0.831,0.518,1.063,0.733,0.324,0.588,0.560,���k��,3.8,��
2023/01/10,20:20,0.572,0.829,0.516,1.063,0.733,0.325,0.588,0.559,���쐼,2.6,��
2023/01/10,20:30,0.569,0.830,0.518,1.060,0.733,0.325,0.587,0.559,��,2.0,��
2023/01/10,20:40,0.572,0.830,0.520,1.064,0.734,0.324,0.587,0.559,��,1.6,��
2023/01/10,20:50,0.569,0.828,0.517,1.063,0.732,0.324,0.588,0.558,��,2.7,��
2023/01/10,21:00,0.571,0.829,0.518,1.064,0.733,0.325,0.589,0.559,���쐼,2.9,��
2023/01/10,21:10,0.571,0.830,0.517,1.060,0.734,0.327,0.589,0.559,��,3.8,��
2023/01/10,21:20,0.572,0.829,0.518,1.060,0.732,0.325,0.587,0.558,��,4.4,��
2023/01/10,21:30,0.570,0.829,0.518,1.063,0.733,0.325,0.588,0.558,��,3.9,��
2023/01/10,21:40,0.572,0.828,0.518,1.063,0.733,0.325,0.588,0.559,��,3.4,��
2023/01/10,21:50,0.571,0.827,0.517,1.062,0.735,0.324,0.587,0.559,���k��,6.0,��
2023/01/10,22:00,0.572,0.830,0.517,1.063,0.731,0.326,0.587,0.560,���k��,4.5,��
2023/01/10,22:10,0.570,0.830,0.517,1.063,0.733,0.325,0.588,0.559,���k��,6.0,��
2023/01/10,22:20,0.571,0.829,0.517,1.063,0.733,0.324,0.587,0.558,���k��,4.7,��
2023/01/10,22:30,0.572,0.831,0.519,1.065,0.731,0.326,0.588,0.559,���k��,5.2,��
2023/01/10,22:40,0.572,0.830,0.517,1.063,0.733,0.324,0.588,0.558,���k��,4.7,��
2023/01/10,22:50,0.571,0.829,0.517,1.063,0.735,0.324,0.586,0.557,��,4.1,��
2023/01/10,23:00,0.571,0.828,0.518,1.063,0.733,0.325,0.586,0.558,��,4.4,��
2023/01/10,23:10,0.571,0.829,0.518,1.062,0.733,0.325,0.587,0.558,���쐼,4.9,��
2023/01/10,23:20,0.571,0.830,0.518,1.064,0.734,0.325,0.588,0.559,���쐼,4.2,��
2023/01/10,23:30,0.570,0.830,0.518,1.062,0.732,0.325,0.586,0.558,���쐼,3.3,��
2023/01/10,23:40,0.571,0.828,0.517,1.062,0.734,0.324,0.587,0.558,���쐼,2.8,��
2023/01/10,23:50,0.571,0.827,0.518,1.063,0.732,0.325,0.587,0.559,���쐼,1.8,��
